Time,TemperatureF,DewpointF,PressureIn,WindDirection,WindDirectionDegrees,WindSpeedMPH,WindSpeedGustMPH,Humidity,HourlyPrecipIn,Conditions,Clouds,dailyrainin,SolarRadiationWatts/m^2,SoftwareType,DateUTC
2013-02-24 00:32:00,29.0,26.0,-100.00,East,95,1.0,3.0,90,0.00,,,0.00,0.000000,,2013-02-24 05:32:00,
2013-02-24 01:11:00,29.0,26.0,-100.00,East,95,1.0,3.0,90,0.00,,,0.00,0.000000,,2013-02-24 06:11:00,
2013-02-24 01:32:00,32.0,29.0,-100.00,ENE,74,3.0,5.0,90,0.00,,,0.00,0.000000,,2013-02-24 06:32:00,
2013-02-24 01:42:00,32.0,29.0,-100.00,ENE,74,3.0,5.0,90,0.00,,,0.00,0.000000,,2013-02-24 06:42:00,
2013-02-24 01:52:00,32.0,29.0,-100.00,ENE,74,3.0,5.0,90,0.00,,,0.00,0.000000,,2013-02-24 06:52:00,
2013-02-24 02:01:00,32.0,29.0,-100.00,ENE,74,3.0,5.0,90,0.00,,,0.00,0.000000,,2013-02-24 07:01:00,
2013-02-24 02:12:00,32.0,29.0,-100.00,ENE,74,3.0,5.0,90,0.00,,,0.00,0.000000,,2013-02-24 07:12:00,
2013-02-24 02:32:00,33.0,28.0,-100.00,ESE,119,2.0,5.0,81,0.00,,,0.00,0.000000,,2013-02-24 07:32:00,
2013-02-24 02:42:00,33.0,28.0,-100.00,ESE,119,2.0,5.0,81,0.00,,,0.00,0.000000,,2013-02-24 07:42:00,
2013-02-24 02:52:00,33.0,28.0,-100.00,ESE,119,2.0,5.0,81,0.00,,,0.00,0.000000,,2013-02-24 07:52:00,
2013-02-24 03:01:00,33.0,28.0,-100.00,ESE,119,2.0,5.0,81,0.00,,,0.00,0.000000,,2013-02-24 08:01:00,
2013-02-24 03:11:00,33.0,28.0,-100.00,ESE,119,2.0,5.0,81,0.00,,,0.00,0.000000,,2013-02-24 08:11:00,
2013-02-24 03:42:00,34.0,28.0,-100.00,WSW,258,2.0,4.0,79,0.00,,,0.00,0.000000,,2013-02-24 08:42:00,
2013-02-24 03:54:00,34.0,28.0,-100.00,WSW,258,2.0,4.0,79,0.00,,,0.00,0.000000,,2013-02-24 08:54:00,
2013-02-24 04:02:00,34.0,28.0,-100.00,WSW,258,2.0,4.0,79,0.00,,,0.00,0.000000,,2013-02-24 09:02:00,
2013-02-24 04:11:00,34.0,28.0,-100.00,WSW,258,2.0,4.0,79,0.00,,,0.00,0.000000,,2013-02-24 09:11:00,
2013-02-24 04:42:00,30.0,25.0,-100.00,ESE,115,2.0,4.0,83,0.00,,,0.00,0.000000,,2013-02-24 09:42:00,
2013-02-24 04:52:00,30.0,25.0,-100.00,ESE,115,2.0,4.0,83,0.00,,,0.00,0.000000,,2013-02-24 09:52:00,
2013-02-24 05:01:00,30.0,25.0,-100.00,ESE,115,2.0,4.0,83,0.00,,,0.00,0.000000,,2013-02-24 10:01:00,
2013-02-24 05:11:00,30.0,25.0,-100.00,ESE,115,2.0,4.0,83,0.00,,,0.00,0.000000,,2013-02-24 10:11:00,
2013-02-24 05:42:00,33.0,30.0,-100.00,West,271,3.0,6.0,88,0.00,,,0.00,0.000000,,2013-02-24 10:42:00,
2013-02-24 05:52:00,33.0,30.0,-100.00,West,271,3.0,6.0,88,0.00,,,0.00,0.000000,,2013-02-24 10:52:00,
2013-02-24 06:01:00,33.0,30.0,-100.00,West,271,3.0,6.0,88,0.00,,,0.00,0.000000,,2013-02-24 11:01:00,
2013-02-24 06:11:00,33.0,30.0,-100.00,West,271,3.0,6.0,88,0.00,,,0.00,0.000000,,2013-02-24 11:11:00,
2013-02-24 06:32:00,28.0,24.0,-100.00,East,92,2.0,5.0,83,0.00,,,0.00,0.000000,,2013-02-24 11:32:00,
2013-02-24 06:42:00,28.0,24.0,-100.00,East,92,2.0,5.0,83,0.00,,,0.00,0.000000,,2013-02-24 11:42:00,
2013-02-24 06:53:00,28.0,24.0,-100.00,East,92,2.0,5.0,83,0.00,,,0.00,0.000000,,2013-02-24 11:53:00,
2013-02-24 07:02:00,28.0,24.0,-100.00,East,92,2.0,5.0,83,0.00,,,0.00,0.000000,,2013-02-24 12:02:00,
2013-02-24 07:11:00,28.0,24.0,-100.00,East,92,2.0,5.0,83,0.00,,,0.00,0.000000,,2013-02-24 12:11:00,
2013-02-24 07:17:00,25.0,22.0,-100.00,West,264,0.0,3.0,87,0.00,,,0.00,2.000000,,2013-02-24 12:17:00,
2013-02-24 07:33:00,25.0,22.0,-100.00,West,264,0.0,3.0,87,0.00,,,0.00,2.000000,,2013-02-24 12:33:00,
2013-02-24 08:15:00,25.0,22.0,-100.00,West,264,0.0,3.0,87,0.00,,,0.00,2.000000,,2013-02-24 13:15:00,
2013-02-24 08:45:00,34.0,30.0,-100.00,West,266,3.0,6.0,85,-99.99,,,0.00,68.000000,,2013-02-24 13:45:00,
2013-02-24 08:56:00,34.0,30.0,-100.00,West,266,3.0,6.0,85,-99.99,,,0.00,68.000000,,2013-02-24 13:56:00,
2013-02-24 09:05:00,34.0,30.0,-100.00,West,266,3.0,6.0,85,-99.99,,,0.00,68.000000,,2013-02-24 14:05:00,
2013-02-24 09:14:00,34.0,30.0,-100.00,West,266,3.0,6.0,85,-99.99,,,0.00,68.000000,,2013-02-24 14:14:00,
2013-02-24 09:45:00,35.0,26.0,-100.00,West,272,8.0,12.0,69,0.00,,,0.00,212.000000,,2013-02-24 14:45:00,
2013-02-24 09:55:00,35.0,26.0,-100.00,West,272,8.0,12.0,69,0.00,,,0.00,212.000000,,2013-02-24 14:55:00,
2013-02-24 10:04:00,35.0,26.0,-100.00,West,272,8.0,12.0,69,0.00,,,0.00,212.000000,,2013-02-24 15:04:00,
2013-02-24 10:14:00,35.0,26.0,-100.00,West,272,8.0,12.0,69,0.00,,,0.00,212.000000,,2013-02-24 15:14:00,
2013-02-24 10:32:00,38.0,26.0,-100.00,WSW,250,7.0,12.0,61,0.00,,,0.00,400.000000,,2013-02-24 15:32:00,
2013-02-24 10:42:00,38.0,26.0,-100.00,WSW,250,7.0,12.0,61,0.00,,,0.00,400.000000,,2013-02-24 15:42:00,
2013-02-24 10:53:00,38.0,26.0,-100.00,WSW,250,7.0,12.0,61,0.00,,,0.00,400.000000,,2013-02-24 15:53:00,
2013-02-24 11:02:00,38.0,26.0,-100.00,WSW,250,7.0,12.0,61,0.00,,,0.00,400.000000,,2013-02-24 16:02:00,
2013-02-24 11:12:00,38.0,26.0,-100.00,WSW,250,7.0,12.0,61,0.00,,,0.00,400.000000,,2013-02-24 16:12:00,
2013-02-24 11:42:00,39.0,24.0,-100.00,WSW,254,10.0,17.0,55,0.00,,,0.00,493.000000,,2013-02-24 16:42:00,
2013-02-24 11:52:00,39.0,24.0,-100.00,WSW,254,10.0,17.0,55,0.00,,,0.00,493.000000,,2013-02-24 16:52:00,
2013-02-24 12:01:00,39.0,24.0,-100.00,WSW,254,10.0,17.0,55,0.00,,,0.00,493.000000,,2013-02-24 17:01:00,
2013-02-24 12:11:00,39.0,24.0,-100.00,WSW,254,10.0,17.0,55,0.00,,,0.00,493.000000,,2013-02-24 17:11:00,
2013-02-24 12:32:00,40.0,24.0,-100.00,WSW,243,8.0,15.0,52,0.00,,,0.00,294.000000,,2013-02-24 17:32:00,
2013-02-24 12:42:00,40.0,24.0,-100.00,WSW,243,8.0,15.0,52,0.00,,,0.00,294.000000,,2013-02-24 17:42:00,
2013-02-24 12:53:00,40.0,24.0,-100.00,WSW,243,8.0,15.0,52,0.00,,,0.00,294.000000,,2013-02-24 17:53:00,
2013-02-24 13:02:00,40.0,24.0,-100.00,WSW,243,8.0,15.0,52,0.00,,,0.00,294.000000,,2013-02-24 18:02:00,
2013-02-24 13:11:00,40.0,24.0,-100.00,WSW,243,8.0,15.0,52,0.00,,,0.00,294.000000,,2013-02-24 18:11:00,
2013-02-24 13:42:00,42.0,22.0,-100.00,WNW,283,9.0,17.0,45,0.00,,,0.00,563.000000,,2013-02-24 18:42:00,
2013-02-24 13:52:00,42.0,22.0,-100.00,WNW,283,9.0,17.0,45,0.00,,,0.00,563.000000,,2013-02-24 18:52:00,
2013-02-24 14:01:00,42.0,22.0,-100.00,WNW,283,9.0,17.0,45,0.00,,,0.00,563.000000,,2013-02-24 19:01:00,
2013-02-24 14:12:00,42.0,22.0,-100.00,WNW,283,9.0,17.0,45,0.00,,,0.00,563.000000,,2013-02-24 19:12:00,
2013-02-24 14:42:00,44.0,20.0,-100.00,West,273,9.0,18.0,38,0.00,,,0.00,564.000000,,2013-02-24 19:42:00,
2013-02-24 14:52:00,44.0,20.0,-100.00,West,273,9.0,18.0,38,0.00,,,0.00,564.000000,,2013-02-24 19:52:00,
2013-02-24 15:02:00,44.0,20.0,-100.00,West,273,9.0,18.0,38,0.00,,,0.00,564.000000,,2013-02-24 20:02:00,
2013-02-24 15:11:00,44.0,20.0,-100.00,West,273,9.0,18.0,38,0.00,,,0.00,564.000000,,2013-02-24 20:11:00,
2013-02-24 15:42:00,43.0,19.0,-100.00,West,271,11.0,19.0,38,0.00,,,0.00,468.000000,,2013-02-24 20:42:00,
2013-02-24 15:52:00,43.0,19.0,-100.00,West,271,11.0,19.0,38,0.00,,,0.00,468.000000,,2013-02-24 20:52:00,
2013-02-24 16:02:00,43.0,19.0,-100.00,West,271,11.0,19.0,38,0.00,,,0.00,468.000000,,2013-02-24 21:02:00,
2013-02-24 16:11:00,43.0,19.0,-100.00,West,271,11.0,19.0,38,0.00,,,0.00,468.000000,,2013-02-24 21:11:00,
2013-02-24 16:42:00,44.0,20.0,-100.00,WNW,289,8.0,22.0,38,0.00,,,0.00,363.000000,,2013-02-24 21:42:00,
2013-02-24 16:52:00,44.0,20.0,-100.00,WNW,289,8.0,22.0,38,0.00,,,0.00,363.000000,,2013-02-24 21:52:00,
2013-02-24 17:01:00,44.0,20.0,-100.00,WNW,289,8.0,22.0,38,0.00,,,0.00,363.000000,,2013-02-24 22:01:00,
2013-02-24 17:11:00,44.0,20.0,-100.00,WNW,289,8.0,22.0,38,0.00,,,0.00,363.000000,,2013-02-24 22:11:00,
2013-02-24 17:42:00,40.0,18.0,-100.00,NW,321,6.0,13.0,41,0.00,,,0.00,128.000000,,2013-02-24 22:42:00,
2013-02-24 17:52:00,40.0,18.0,-100.00,NW,321,6.0,13.0,41,0.00,,,0.00,128.000000,,2013-02-24 22:52:00,
2013-02-24 18:02:00,40.0,18.0,-100.00,NW,321,6.0,13.0,41,0.00,,,0.00,128.000000,,2013-02-24 23:02:00,
2013-02-24 18:11:00,40.0,18.0,-100.00,NW,321,6.0,13.0,41,0.00,,,0.00,128.000000,,2013-02-24 23:11:00,
2013-02-24 18:32:00,36.0,18.0,-100.00,NE,37,6.0,10.0,47,0.00,,,0.00,44.000000,,2013-02-24 23:32:00,
2013-02-24 18:42:00,36.0,18.0,-100.00,NE,37,6.0,10.0,47,0.00,,,0.00,44.000000,,2013-02-24 23:42:00,
2013-02-24 18:52:00,36.0,18.0,-100.00,NE,37,6.0,10.0,47,0.00,,,0.00,44.000000,,2013-02-24 23:52:00,
2013-02-24 19:02:00,36.0,18.0,-100.00,NE,37,6.0,10.0,47,0.00,,,0.00,44.000000,,2013-02-25 00:02:00,
2013-02-24 19:11:00,36.0,18.0,-100.00,NE,37,6.0,10.0,47,0.00,,,0.00,44.000000,,2013-02-25 00:11:00,
2013-02-24 19:42:00,31.0,18.0,-100.00,NNE,25,5.0,11.0,59,0.00,,,0.00,0.000000,,2013-02-25 00:42:00,
2013-02-24 19:52:00,31.0,18.0,-100.00,NNE,25,5.0,11.0,59,0.00,,,0.00,0.000000,,2013-02-25 00:52:00,
2013-02-24 20:01:00,31.0,18.0,-100.00,NNE,25,5.0,11.0,59,0.00,,,0.00,0.000000,,2013-02-25 01:01:00,
2013-02-24 20:11:00,31.0,18.0,-100.00,NNE,25,5.0,11.0,59,0.00,,,0.00,0.000000,,2013-02-25 01:11:00,
2013-02-24 20:42:00,29.0,18.0,-100.00,ENE,63,3.0,9.0,63,0.00,,,0.00,0.000000,,2013-02-25 01:42:00,
2013-02-24 20:52:00,29.0,18.0,-100.00,ENE,63,3.0,9.0,63,0.00,,,0.00,0.000000,,2013-02-25 01:52:00,
2013-02-24 21:01:00,29.0,18.0,-100.00,ENE,63,3.0,9.0,63,0.00,,,0.00,0.000000,,2013-02-25 02:01:00,
2013-02-24 21:11:00,29.0,18.0,-100.00,ENE,63,3.0,9.0,63,0.00,,,0.00,0.000000,,2013-02-25 02:11:00,
2013-02-24 21:42:00,26.0,16.0,-100.00,East,95,0.0,8.0,66,0.00,,,0.00,0.000000,,2013-02-25 02:42:00,
2013-02-24 21:52:00,26.0,16.0,-100.00,East,95,0.0,8.0,66,0.00,,,0.00,0.000000,,2013-02-25 02:52:00,
2013-02-24 22:02:00,26.0,16.0,-100.00,East,95,0.0,8.0,66,0.00,,,0.00,0.000000,,2013-02-25 03:02:00,
2013-02-24 22:11:00,26.0,16.0,-100.00,East,95,0.0,8.0,66,0.00,,,0.00,0.000000,,2013-02-25 03:11:00,
2013-02-24 22:32:00,21.0,15.0,-100.00,East,91,1.0,4.0,78,0.00,,,0.00,0.000000,,2013-02-25 03:32:00,
2013-02-24 23:42:00,20.0,15.0,-100.00,East,100,1.0,3.0,82,0.00,,,-99.99,0.000000,,2013-02-25 04:42:00,
2013-02-24 23:52:00,20.0,15.0,-100.00,East,100,1.0,3.0,82,0.00,,,-99.99,0.000000,,2013-02-25 04:52:00,